Regional Weather Roundup
Issued by NWS Upton, NY

Current Version | Previous Version | Graphics & Text | Print | Product List | Glossary Off
Versions: 1 2 3 4 5 6 7 8 9 10 11 12 13 14 15 16 17 18 19 20 21 22 23 24 25 26 27 28 29 30 31 32 33 34 35 36 37 38 39 40 41 42 43 44 45 46 47 48 49 50
000 ASUS41 KOKX 272205 RWROKX REGIONAL WEATHER ROUNDUP NATIONAL WEATHER SERVICE NEW YORK NY 600 PM EDT FRI MAY 27 2016 NOTE: "FAIR" INDICATES FEW OR NO CLOUDS BELOW 12,000 FEET WITH NO SIGNIFICANT WEATHER AND/OR OBSTRUCTIONS TO VISIBILITY. NYZ071-072-176-178-NJZ106-104-272300- NEW YORK CITY METRO AREA CITY SKY/WX TMP DP RH WIND PRES REMARKS CENTRAL PARK SUNNY 81 62 52 VRB3 30.03F LAGUARDIA APRT PTSUNNY 80 68 66 S16 30.00F KENNEDY INTL PTSUNNY 72 61 68 S25 30.02F NEWARK/LIBERTY PTSUNNY 84 65 52 SE7 29.98F BRNX BOT. GARD N/A 77 63 61 SE16 30.03R TETERBORO MOSUNNY 84 62 47 SE7G17 29.98F $$ NYZ177-179-078>081-272300- LONG ISLAND NEW YORK CITY SKY/WX TMP DP RH WIND PRES REMARKS FARMINGDALE PTSUNNY 72 62 71 S9 30.05F ISLIP PTSUNNY 71 61 70 S12 30.05S SHIRLEY SUNNY 69 60 73 S15G23 30.07S RIVERHEAD N/A 75 63 64 W2 30.05S WESTHAMPTON SUNNY 68 59 73 SW12G18 30.08F EAST HAMPTON FAIR 66 58 76 S10G16 30.07F MONTAUK POINT N/A 64 59 83 S8G20 30.08F $$ NYZ052-065-067-272300- HUDSON VALLEY CITY SKY/WX TMP DP RH WIND PRES REMARKS WHITE PLAINS MOSUNNY 78 63 59 S9 30.03S NEWBURGH MOSUNNY 77 72 83 SE12 30.03S MONTGOMERY SUNNY 81 72 74 E7 30.01S POUGHKEEPSIE PTSUNNY 78 70 76 SE6 30.00S ALBANY PTSUNNY 85 66 53 S16G25 29.96F $$ NJZ001-105-106-008-010-013-015-019>022-104-272300- NEW JERSEY CITY SKY/WX TMP DP RH WIND PRES REMARKS NEWARK/LIBERTY PTSUNNY 84 65 52 SE7 29.98F TETERBORO MOSUNNY 84 62 47 SE7G17 29.98F CALDWELL PTSUNNY 87 66 49 S6 29.99F MORRISTOWN MOSUNNY 88 66 48 W10G18 29.99F HX 90 SOMERVILLE MOSUNNY 88 66 48 SW3 29.97F HX 90 SUSSEX MOSUNNY 82 69 64 NE3 30.00F ANDOVER N/A 86 65 49 VRB6 30.01F TRENTON CLOUDY 87 66 49 SW7 30.00F MILLVILLE SUNNY 80 66 62 S9 30.05S ATLANTIC CITY SUNNY 78 61 55 S17G23 30.06F WRIGHTSTOWN PTSUNNY 87 68 52 SW12 29.99F HX 91 TOMS RIVER SUNNY 82 63 51 S13G18 30.03F BELMAR SUNNY 80 67 64 SE7 30.03F $$ PAZ047>061-062-071-272300- EASTERN PENNSYLVANIA CITY SKY/WX TMP DP RH WIND PRES REMARKS PHILADELPHIA PTSUNNY 89 64 43 SW15 30.02F HX 90 ALLENTOWN MOSUNNY 86 65 49 SW8 30.00F SCRANTON SUNNY 87 62 43 SW12 30.01S $$ CTZ002-004>006-009-010-012-RIZ004-006-007-MAZ004-011-015-272300- SOUTHERN NEW ENGLAND IN CT CITY SKY/WX TMP DP RH WIND PRES REMARKS BRADLEY INTL PTSUNNY 84 63 49 SW16 30.00R HARTFORD SUNNY 85 65 51 VRB6 30.03R DANBURY TSTM 73 66 78 VRB3 30.05R VSB 1 WTRBRY/OXFORD PTSUNNY 75 63 64 S9 30.06S BRIDGEPORT MOSUNNY 77 63 61 S9 30.04S MERIDEN MOSUNNY 80 64 58 S8 30.04R NEW HAVEN CLOUDY 74 63 68 S7 30.05S CHESTER FAIR 75 64 69 S7G14 30.07R GROTON SUNNY 68 62 81 SW5 30.06F WILLIMANTIC SUNNY 84 63 49 S13 30.03S IN RI CITY SKY/WX TMP DP RH WIND PRES REMARKS PROVIDENCE PTSUNNY 81 62 52 S15 30.04F BLOCK ISLAND SUNNY 64 58 80 SW17G24 30.08S WESTERLY SUNNY 68 57 68 SW12 30.08S IN MA CITY SKY/WX TMP DP RH WIND PRES REMARKS BOSTON MOSUNNY 61 55 81 E7 30.03F WORCESTER PTSUNNY 81 61 50 SW13G23 30.05S WESTFIELD LGT RAIN 73 68 84 SW10 30.02R PROVINCETOWN SUNNY 70 62 76 S18 30.04F NANTUCKET SUNNY 63 57 81 SW9 30.10F $$ ANZ330-335-338-340-345-350-353-355-272300- COASTAL MARINE OBSERVATIONS STATION/POSITION TIME SKY/WX TEMP WIND PRES VSBY WAVE AIR SEA DIR/SP/G HT/PER (UTC) (F) (DEG/KT/KT) (MB) (MI) (FT/S) NY HARB ENTRANCE 2050 64 61 190/ 17/ 19 1016.6 4/ 5 20S FIRE ISLAND 2050 62 60 200/ 17/ 19 1017.7 4/ 5 GREAT SOUTH BAY 2100 65 69 200/ 10/ 12 N/A 23 SSW MONTAUK P 2150 61 58 220/ 17/ 19 1017.8 3/ 4 15 E BARNEGAT LI 2122 60 N/A 4/ 5 HUDSON CANYON 2050 62 58 1019.5 3/ 5 KINGS POINT 2100 71 62 1016.3 EXECUTION ROCKS NOT AVBL CENTRAL LI SOUND 2100 67 190/ 8/ 8 N/A 1 EASTERN LI SOUND 2100 59 54 70/ 2/ 4 N/A ROBBINS REEF 2106 71 170/ 18/ 19 1015.2 $$ >>>>>>>>>>>>>>>>>>>>>>>>>>>> KEY <<<<<<<<<<<<<<<<<<<<<<<<<<< > < > SKY/WX - SKY CONDITION/PRESENT WEATHER < > TMP - TEMPERATURE IN FAHRENHEIT < > DP - DEWPOINT IN FAHRENHEIT < > RH - RELATIVE HUMIDITY IN PERCENT < > WIND - DIRECTION AND SPEED IN MPH < > PRES - MEAN SEA LEVEL PRESSURE IN INCHES OF HG < > WCI - WIND CHILL INDEX < > VSB - VISIBILITY IN MILES < > HX - HEAT INDEX < > TC - TEMPERATURE IN CELSIUS < > VRB - VARIABLE WIND DIRECTION < > < >>>>>>>>>>>>>>>>>>>>>>>>>>>> KEY <<<<<<<<<<<<<<<<<<<<<<<<<<<

USA.gov is the U.S. government's official web portal to all federal, state and local government web resources and services.